TimeEST,TemperatureF,Dew PointF,Humidity,Sea Level PressureIn,VisibilityMPH,Wind Direction,Wind SpeedMPH,Gust SpeedMPH,PrecipitationIn,Events,Conditions,WindDirDegrees,DateUTC
12:53 AM,73.9,71.1,91,30.15,10.0,ENE,12.7,-,N/A,,Overcast,70,2013-11-22 05:53:00
1:53 AM,73.9,71.1,91,30.15,10.0,East,10.4,-,N/A,,Overcast,80,2013-11-22 06:53:00
2:53 AM,73.0,71.1,93,30.14,10.0,East,10.4,-,N/A,,Scattered Clouds,90,2013-11-22 07:53:00
3:53 AM,73.0,70.0,90,30.14,10.0,ENE,11.5,-,N/A,,Clear,60,2013-11-22 08:53:00
4:28 AM,73.0,70.0,90,30.14,10.0,ENE,11.5,-,N/A,,Overcast,60,2013-11-22 09:28:00
4:53 AM,73.0,70.0,90,30.14,10.0,NE,9.2,-,N/A,,Overcast,50,2013-11-22 09:53:00
5:53 AM,73.0,70.0,90,30.14,10.0,ENE,11.5,-,N/A,,Overcast,60,2013-11-22 10:53:00
6:53 AM,73.0,70.0,90,30.15,10.0,ENE,10.4,-,N/A,,Overcast,70,2013-11-22 11:53:00
7:53 AM,73.0,70.0,90,30.17,10.0,East,11.5,-,N/A,,Overcast,80,2013-11-22 12:53:00
8:53 AM,73.9,71.1,91,30.18,10.0,ENE,10.4,-,N/A,,Overcast,70,2013-11-22 13:53:00
9:53 AM,75.0,71.1,87,30.18,10.0,East,9.2,-,N/A,,Mostly Cloudy,80,2013-11-22 14:53:00
10:53 AM,75.9,71.1,85,30.17,10.0,ENE,8.1,-,N/A,,Overcast,60,2013-11-22 15:53:00
11:53 AM,79.0,72.0,79,30.15,10.0,East,5.8,-,N/A,,Overcast,90,2013-11-22 16:53:00
12:53 PM,79.0,70.0,74,30.13,9.0,East,10.4,-,0.00,Rain,Light Rain,90,2013-11-22 17:53:00
1:53 PM,80.1,71.1,74,30.10,10.0,ENE,5.8,-,0.00,,Mostly Cloudy,70,2013-11-22 18:53:00
2:53 PM,79.0,71.1,77,30.09,10.0,East,6.9,-,N/A,,Mostly Cloudy,80,2013-11-22 19:53:00
3:53 PM,79.0,70.0,74,30.09,10.0,East,11.5,-,N/A,,Mostly Cloudy,80,2013-11-22 20:53:00
4:53 PM,78.1,71.1,79,30.09,10.0,ENE,6.9,-,N/A,,Partly Cloudy,70,2013-11-22 21:53:00
5:53 PM,77.0,70.0,79,30.09,10.0,East,9.2,-,N/A,,Clear,80,2013-11-22 22:53:00
6:53 PM,77.0,71.1,82,30.12,10.0,ENE,9.2,-,N/A,,Overcast,60,2013-11-22 23:53:00
7:53 PM,75.9,70.0,82,30.12,10.0,ENE,11.5,-,N/A,,Overcast,70,2013-11-23 00:53:00
8:53 PM,75.9,69.1,79,30.13,10.0,East,15.0,-,N/A,,Mostly Cloudy,90,2013-11-23 01:53:00
9:53 PM,75.0,68.0,79,30.13,10.0,East,13.8,-,N/A,,Clear,80,2013-11-23 02:53:00
10:53 PM,73.9,68.0,82,30.13,10.0,East,9.2,-,N/A,,Partly Cloudy,90,2013-11-23 03:53:00
11:53 PM,73.9,66.9,79,30.11,10.0,East,11.5,-,N/A,,Clear,80,2013-11-23 04:53:00